Regional Weather Roundup
Issued by NWS

Home | Current Version | Previous Version | Text Only | Print | Product List | Glossary On
Versions: 1 2 3 4 5 6 7 8 9 10 11 12 13 14 15 16 17 18 19 20 21 22 23 24 25 26 27 28 29 30 31 32 33 34 35 36 37 38 39 40 41 42 43 44 45 46 47 48 49 50
832
ASUS44 KFWD 040415
RWRTX
NORTH TEXAS HOURLY WEATHER ROUNDUP
NATIONAL WEATHER SERVICE FORT WORTH TX
1000 PM CST SAT DEC 03 2016

NOTE: "FAIR" INDICATES FEW OR NO CLOUDS BELOW 12,000 FEET WITH NO
SIGNIFICANT WEATHER AND/OR OBSTRUCTIONS TO VISIBILITY.

TXZ118-119-040500-
DALLAS/FORT WORTH METROPLEX

CITY           SKY/WX    TMP DP  RH WIND       PRES   REMARKS
DFW AIRPORT    CLOUDY    48  45  89 N9        29.99F
DALLAS LOVE    CLOUDY    49  47  93 N7        30.00F
FTW MEACHAM    CLOUDY    49  46  90 NE9       29.98F FOG
DAL-EXECUTIVE  CLOUDY    48  47  96 NE7       29.98F FOG
FTW-ALLIANCE   CLOUDY    47  46  97 NE9       30.00R FOG
FTW-NAS-JRB    CLOUDY    49  47  93 NE6       30.00R
FTW-SPINKS     CLOUDY    48  47  95 N6        29.99F FOG
ARLINGTON      CLOUDY    48  47  96 N9        29.99F FOG
GRAND PRAIRIE  CLOUDY    47  47 100 N8        30.01F
ADDISON        CLOUDY    48  48 100 N5        30.02R FOG
MESQUITE       CLOUDY    47  47  99 NE3       29.99F
LANCASTER      CLOUDY    49  47  92 NE5       29.99F FOG
$$

TXZ091>094-102>105-117-120-121-131>134-040500-
NORTH CENTRAL TEXAS

CITY           SKY/WX    TMP DP  RH WIND       PRES   REMARKS
SHRMAN/DENISON CLOUDY    46  46 100 NE5       30.03S FOG
GAINESVILLE    CLOUDY    45  44  97 CALM      30.04F FOG
BOWIE          CLOUDY    46  45  97 E3        30.01F
BRIDGEPORT     CLOUDY    46  46 100 E6        30.02F FOG
DECATUR        CLOUDY    45  45 100 E7        30.00S FOG
DENTON         CLOUDY    46  46 100 NE7       30.01F FOG
MCKINNEY       CLOUDY    46  46 100 NE7       30.01R FOG
BONHAM         CLOUDY    45  45 100 NE7       30.02S FOG
GREENVILLE     CLOUDY    46  45  93 E3        29.99F
ROCKWALL       CLOUDY    47  47 100 E6        29.99F FOG
TERRELL        LGT RAIN  49  46  90 NE6       30.00R
WAXAHACHIE     CLOUDY    47  47 100 NE3       29.99S FOG
CLEBURNE       CLOUDY    48  48 100 N13       29.98F FOG
GRANBURY       CLOUDY    50  48  92 N5        29.98F
$$

TXZ083>090-098>101-113>116-127>130-139>142-154-155-040500-
WESTERN NORTH TEXAS

CITY           SKY/WX    TMP DP  RH WIND       PRES   REMARKS
WICHITA FALLS  CLOUDY    45  43  93 E7        30.03R
WF-KICKAPOO    CLOUDY    45  44  97 E6        30.04R
VERNON         CLOUDY    46  42  87 E6        30.04S
ABILENE        CLOUDY    45  45 100 N8        29.99F FOG
ABILENE-DYESS  CLOUDY    45  45 100 N8        29.97F
CISCO          CLOUDY    46  46 100 N7        29.97F FOG
BRECKENRIDGE   CLOUDY    48  47  99 N3        29.99F FOG
GRAHAM         DRIZZLE   46  46 100 CALM      29.98F
MINERAL WELLS  CLOUDY    47  46  97 NE6       29.96F FOG
STEPHENVILLE   CLOUDY    47  46  93 NE6       29.98F
COMANCHE       CLOUDY    47  47 100 N7        29.96F FOG
BROWNWOOD      CLOUDY    48  46  93 N6        29.96S
COLEMAN        CLOUDY    47  46  95 N7        29.98R FOG
$$

TXZ143>147-156>162-174-175-040500-
CENTRAL TEXAS

CITY           SKY/WX    TMP DP  RH WIND       PRES   REMARKS
WACO           CLOUDY    49  48  97 N10       29.94F
WACO-TSTC      CLOUDY    48  48 100 N8        29.95F
WACO-MCGREGOR  CLOUDY    49  48  97 N10       29.94F
HILLSBORO      CLOUDY    48  48  97 NE9       29.95F
CORSICANA      CLOUDY    50  49  96 N7        29.97F
MEXIA          CLOUDY    49  47  95 NW8       29.92F
HEARNE         CLOUDY    50  49  97 N7        29.94F
CAMERON        CLOUDY    50  49  94 N8        29.95R
TEMPLE         CLOUDY    49  48  97 N10       29.95R
KILLEEN        CLOUDY    48  48 100 NE7       29.93S
KILLEEN-SKYLRK CLOUDY    49  48  97 NE9       29.95R
FORT HOOD      CLOUDY    48  48 100 NE8       29.92R
GATESVILLE     CLOUDY    48  48 100 NE5       29.94F
HAMILTON       CLOUDY    48  48 100 N9        29.95S FOG
LAMPASAS       CLOUDY    50  50  97 NE5       29.94R
$$

TXZ095>097-106>112-122>126-135>138-148>153-164>167-040500-
EAST TEXAS

CITY           SKY/WX    TMP DP  RH WIND       PRES   REMARKS
PARIS          CLOUDY    46  43  87 E8        30.03R
SULPHUR SPRNGS CLOUDY    48  47  96 NE6       30.03R
MOUNT PLEASANT CLOUDY    47  47 100 E8        30.03R
GILMER         CLOUDY    46  45  95 N6        29.98R
MINEOLA        CLOUDY    48  46  93 N3        29.99R
TYLER          CLOUDY    49  47  93 W10G23    29.99R
LONGVIEW       CLOUDY    48  47  96 E14       29.92F
MARSHALL       CLOUDY    45  43  93 E3        29.99F
ATHENS         CLOUDY    46  46 100 N7        29.97R
PALESTINE      CLOUDY    49  48  97 NW6       29.97R
JACKSONVILLE   CLOUDY    46  46 100 E13G23    29.85F FOG
HENDERSON      CLOUDY    47  47 100 E12       29.90F
CENTER         LGT RAIN  49  48  95 E6        29.95F
NACOGDOCHES    CLOUDY    48  45  87 NE6       29.90F
LUFKIN         CLOUDY    48  46  93 E14       29.87F
$$

SUPPLEMENTAL OBSERVATIONS (CENTRAL)

CITY           SKY/WX    TMP DP  RH WIND       PRES   REMARKS
DENISON DAM      N/A     45  43  93 NE5         N/A
CADDO GRASSLND   N/A     46  41  81 NE3         N/A
PAT MAYSE LAKE   N/A     45  43  93 NE5         N/A
GREENVILLE       N/A     46  43  87 E8          N/A
CEDAR HILL       N/A     48  46  93 NE5         N/A
ATHENS           N/A     48  45  87 N2G17       N/A
LAKE LIMESTONE   N/A     48  45  87 N6G14       N/A
MCGREGOR         N/A     48  46  93 NE9         N/A
TEMPLE           N/A     50  48  93 VRB2G17     N/A
$$

SUPPLEMENTAL OBSERVATIONS (WEST)

CITY           SKY/WX    TMP DP  RH WIND       PRES   REMARKS
POSSUM KINGDOM   N/A     46  45  93 NE5         N/A
LBJ GRASSLAND    N/A     45  43  93 CALM        N/A
GRANBURY         N/A     48  45  87 NE7         N/A
COMANCHE         N/A     46  45  93 NE8         N/A
HAMBY            N/A     45  32  61 N5          N/A
IVIE RESERVOIR   N/A     46  43  87 NE6         N/A
COLORADO BEND    N/A     48  45  87 E2          N/A
$$

SUPPLEMENTAL OBSERVATIONS (EAST)

CITY           SKY/WX    TMP DP  RH WIND       PRES   REMARKS
CLARKSVILLE      N/A     46  43  87 E8          N/A
LINDEN           N/A     46  43  87 E8G17       N/A
GILMER           N/A     48  45  87 NE7G16      N/A
HENDERSON        N/A     46  43  87 E15         N/A
N SABINE NF      N/A     48  46  93 MISG        N/A
S SABINE NF      N/A     48  46  93 N5          N/A
$$

SUPPLEMENTAL OBSERVATIONS ARE A COLLECTION OF AUTOMATED INSTRUMENTS
THAT ARE MAINTAINED BY A VARIETY OF FEDERAL AND STATE AGENCIES.
CERTAIN ELEMENTS...SUCH AS HUMIDITY VALUES AND SUSTAINED WIND
SPEEDS...MAY BE APPROXIMATED.





USA.gov is the U.S. government's official web portal to all federal, state and local government web resources and services.